Regional Weather Roundup
Issued by NWS Albany, NY

Home | Current Version | Previous Version | Text Only | Print | Product List | Glossary On
Versions: 1 2 3 4 5 6 7 8 9 10 11 12 13 14 15 16 17 18 19 20 21 22 23 24 25 26 27 28 29 30 31 32 33 34 35 36 37 38 39 40 41 42 43 44 45 46 47 48 49 50
227
ASUS41 KALY 250410
RWRALY

NEW YORK STATE HOURLY WEATHER ROUNDUP
NATIONAL WEATHER SERVICE ALBANY NY
1100 PM EST SAT FEB 24 2018

NOTE: "FAIR" INDICATES FEW OR NO CLOUDS BELOW 12,000 FEET WITH NO
SIGNIFICANT WEATHER AND/OR NO OBSTRUCTIONS TO VISIBILITY.

NYZ032-033-038>043-046>054-057>066-NYZ062>081-082-084-250500-
EAST


CITY           SKY/WX    TMP DP  RH WIND       PRES   REMARKS
ALBANY         CLOUDY    36  28  73 N6        30.26R WCI  31
GLENS FALLS    FAIR      33  26  75 N6        30.27R WCI  28
POUGHKEEPSIE   CLOUDY    39  37  92 NE3       30.22S
NEWBURGH       CLOUDY    39  37  93 NE6       30.23F WCI  35
MONTGOMERY     CLOUDY    39  37  92 N5        30.20S
WHITE PLAINS   CLOUDY    42  38  85 E3        30.20R
ISLIP          CLOUDY    43  43 100 E3        30.22R
NEW YORK CITY  CLOUDY    44  40  85 NE8       30.21F
CENTRAL PARK   CLOUDY    44  41  89 E7        30.23F
$$

NYZ005>009-017-018-044>046-055-056-250500-
CENTRAL


CITY           SKY/WX    TMP DP  RH WIND       PRES   REMARKS
FULTON         CLOUDY    33  29  85 E3        30.17F
SYRACUSE       CLOUDY    32  31  96 E5        30.17F WCI  27
ROME           CLOUDY    32  29  88 E5        30.22F WCI  27
ELMIRA         CLOUDY    36  32  85 CALM      30.13F
BINGHAMTON     FAIR      33  30  88 E7        30.12F WCI  27
MONTICELLO     CLOUDY    35  34  96 E5        30.19F WCI  31
$$

NYZ026>034-041>043-087-250500-
NORTH


CITY           SKY/WX    TMP DP  RH WIND       PRES   REMARKS
WATERTOWN      FAIR      28  26  92 E5        30.21F WCI  23
FORT DRUM      NOT AVBL
OGDENSBURG     FAIR      28  27  93 E7        30.24F WCI  21
MASSENA        FAIR      27  23  85 NE7       30.29F WCI  19
SARANAC LAKE   FAIR      24  22  91 E5        30.17F WCI  18
PLATTSBURGH    FAIR      26  23  88 CALM      30.29F
$$

NYZ001>004-010>016-019>021-085-250500-
WEST


CITY           SKY/WX    TMP DP  RH WIND       PRES   REMARKS
NIAGARA FALLS  FAIR      38  29  70 E12       30.04F WCI  30
BUFFALO        MOCLDY    37  32  82 E12       30.03F WCI  29
DUNKIRK        FAIR      41  36  82 NE10      29.98F
JAMESTOWN        N/A    N/A N/A N/A MISG        N/A
WELLSVILLE     FOG       35  35 100 SE10      30.04F VSB 1/4 WCI  27
ROCHESTER      MOCLDY    37  30  75 E12       30.11F WCI  29
PENN YAN       MOCLDY    35  29  78 CALM      30.13F
$$

             KEY
       WCI = WIND CHILL INDEX
       VSB = VISIBILITY
       HX  = HEAT INDEX
$$




USA.gov is the U.S. government's official web portal to all federal, state and local government web resources and services.